Weather History for Hurghada, Egypt

Change the Weather History Date:

Wednesday, April 18, 2012

  Actual Average Record
Temperature  
Mean Temperature 76 °F -  
Max Temperature 87 °F 86 °F 96 °F (2011)
Min Temperature 66 °F 69 °F 50 °F (1999)
Cooling Degree Days 12    
Growing Degree Days 26 (Base 50)    
Moisture  
Dew Point 47 °F    
Average Humidity 33    
Maximum Humidity 51    
Minimum Humidity 16    
Precipitation  
Precipitation 0.00 in - - ()
Sea Level Pressure  
Sea Level Pressure 29.75 in    
Wind  
Wind Speed 6 mph ()    
Max Wind Speed 33 mph    
Max Gust Speed -    
Visibility 3.1 miles    
Events      
Averages and records for this station are not official NWS values.
T = Trace of Precipitation, MM = Missing Value Source: Averaged Metar Reports

Daily Weather History Graph

Daily Weather History Graph

Search for Another Location

Airport:

Trip Planner

Search our weather history database for the weather conditions in past years. The results will help you decide how hot, cold, wet, or windy it might be!

Date:

Astronomy

Apr. 18, 2012 Rise Set
Actual Time 5:17 AM EET 6:11 PM EET
Civil Twilight 4:53 AM EET 6:35 PM EET
Nautical Twilight 4:25 AM EET 7:03 PM EET
Astronomical Twilight 3:56 AM EET 7:32 PM EET
Moon 3:20 AM EET (4/18) 3:52 PM EET (4/18)
Length of Visible Light 13h 41m
Length of Day
12h 53m
Waning Crescent, 8% of the Moon is Illuminated
Apr 18
Waning Crescent
Apr 21
New
Apr 29
First Quarter
May 6
Full
May 12
Last Quarter

Hourly Weather History & Observations

Time (EET) Temp. Heat Index Dew Point Humidity Pressure Visibility Wind Dir Wind Speed Gust Speed Precip Events Conditions
12:00 AM 69.8 °F - 42.8 °F 38% 29.74 in - Calm Calm - N/A   Clear
1:00 AM 69.8 °F - 35.6 °F 28% 29.74 in - Calm Calm - N/A   Clear
2:00 AM 68 °F - 37 °F 20% 29.75 in 6 mi Calm Calm - -  
2:00 AM 68.0 °F - 37.4 °F 33% 29.74 in - Calm Calm - N/A   Clear
3:00 AM 68.0 °F - 35.6 °F 30% 29.74 in - South 5.8 mph - N/A   Clear
4:00 AM 68.0 °F - 41.0 °F 37% 29.74 in - WSW 5.8 mph - N/A   Clear
5:00 AM 68.0 °F - 41.0 °F 37% 29.74 in - Calm Calm - N/A   Clear
6:00 AM 69.8 °F - 37.4 °F 31% 29.74 in - Variable 3.5 mph - N/A   Clear
7:00 AM 71.6 °F - 37.4 °F 29% 29.74 in - Variable 3.5 mph - N/A   Clear
8:00 AM 79 °F - 41 °F 16% 29.77 in 6 mi Calm Calm - -  
8:00 AM 78.8 °F - 41.0 °F 26% 29.77 in - Calm Calm - N/A   Clear
9:00 AM 80.6 °F - 51.8 °F 37% 29.77 in - ESE 4.6 mph - N/A   Clear
10:00 AM 82.4 °F 82.5 °F 59.0 °F 45% 29.74 in - SE 11.5 mph - N/A   Clear
11:00 AM 84.2 °F 83.5 °F 57.2 °F 40% 29.74 in - SE 16.1 mph - N/A   Clear
12:00 PM 86.0 °F 84.9 °F 57.2 °F 37% 29.74 in - East 13.8 mph - N/A   Clear
1:00 PM 86.0 °F - 50.0 °F 29% 29.71 in 4.3 mi ESE 13.8 mph - N/A   Unknown
2:00 PM 84.2 °F 82.8 °F 53.6 °F 35% 29.71 in 4.3 mi ESE 15.0 mph - N/A   Unknown
3:00 PM 82.4 °F 83.4 °F 62.6 °F 51% 29.68 in 4.3 mi SE 15.0 mph - N/A   Unknown
4:00 PM 82.4 °F 83.4 °F 62.6 °F 51% 29.71 in 4.3 mi ESE 5.8 mph - N/A   Unknown
5:00 PM 82.4 °F 81.7 °F 55.4 °F 39% 29.68 in 4.3 mi SE 6.9 mph - N/A   Unknown
6:00 PM 82.4 °F - 50.0 °F 32% 29.71 in 4.3 mi Calm Calm - N/A   Unknown
7:00 PM 84.2 °F - 50.0 °F 30% 29.74 in 4.3 mi NNW 2.3 mph - N/A   Unknown
8:00 PM 83 °F - 49 °F 21% 29.79 in 0 mi North 31.1 mph - -   Light Sandstorm
8:00 PM 84.2 °F - 50.0 °F 30% 29.77 in 0.5 mi North 31.1 mph - N/A   Sandstorm
9:00 PM 80.6 °F - 50.0 °F 34% 29.80 in 0.5 mi North 31.1 mph - N/A   Sandstorm
10:00 PM 78.8 °F - 46.4 °F 32% 29.83 in 0.5 mi North 31.1 mph - N/A   Sandstorm
11:00 PM 77.0 °F - 41.0 °F 28% 29.83 in 0.5 mi North 33.4 mph - N/A   Sandstorm